Back to catalog

CZ-4 DEB

AliveSSO
NORAD 28067·DEBRIS·🇨🇳 China

Launched Oct 14, 1999 from Taiyuan Satellite Launch Center

Loading…

Next Passes (next 24 hours)

TLE

FreshSource: Space-Track

Epoch: Sep 12, 2026, 16:27 UTC

1 28067U 99057MX  26255.68566334  .00004083  00000-0  65244-3 0  9993
2 28067  98.4070 337.1188 0063036 174.3734 185.8194 14.71104367256521

Track CZ-4 DEB in real time with AllMySat

Download on the App Store